This is the latest recevied weather packets stored in our database for station/object KF0WJA. If no packets are shown the sender has not sent any weather packets the latest 10 day(s).
| Time | Temp. | Humidity | Pressure | Rain* | Wind** | Luminosity | Snow |
|---|---|---|---|---|---|---|---|
| 1788369189 | 36.11° C | 42% | 1017.9 hPa | 0 mm | - | 673 W/m² | - |
| 1788368886 | 35.56° C | 43% | 1017.8 hPa | 0 mm | - | 653 W/m² | - |
| 1788368581 | 35° C | 45% | 1017.9 hPa | 0 mm | - | 658 W/m² | - |
| 1788368276 | 35.56° C | 43% | 1018.1 hPa | 0 mm | - | 662 W/m² | - |
| 1788367975 | 35° C | 45% | 1018 hPa | 0 mm | - | 663 W/m² | - |
| 1788367670 | 35° C | 44% | 1018 hPa | 0 mm | - | 660 W/m² | - |
| 1788367364 | 35° C | 45% | 1018.5 hPa | 0 mm | - | 649 W/m² | - |
| 1788367060 | 34.44° C | 47% | 1018.4 hPa | 0 mm | - | 659 W/m² | - |
| 1788366759 | 35° C | 46% | 1018.5 hPa | 0 mm | - | 641 W/m² | - |
| 1788366457 | 34.44° C | 46% | 1018.6 hPa | 0 mm | - | 622 W/m² | - |
| 1788366152 | 34.44° C | 47% | 1018.7 hPa | 0 mm | - | 609 W/m² | - |
| 1788365847 | 33.89° C | 49% | 1018.7 hPa | 0 mm | - | 593 W/m² | - |
| 1788365543 | 33.89° C | 49% | 1018.5 hPa | 0 mm | - | 613 W/m² | - |
| 1788365240 | 33.89° C | 49% | 1018.5 hPa | 0 mm | - | 599 W/m² | - |
| 1788364934 | 33.33° C | 49% | 1018.7 hPa | 0 mm | - | 590 W/m² | - |
| 1788364652 | 33.89° C | 49% | 1018.7 hPa | 0 mm | - | 553 W/m² | - |
| 1788364331 | 33.33° C | 49% | 1019 hPa | 0 mm | - | 552 W/m² | - |
| 1788364026 | 33.33° C | 50% | 1018.6 hPa | 0 mm | - | 528 W/m² | - |
| 1788363721 | 32.78° C | 50% | 1018.5 hPa | 0 mm | - | 520 W/m² | - |
| 1788363420 | 32.78° C | 50% | 1018.7 hPa | 0 mm | - | 516 W/m² | - |
| 1788363121 | 32.78° C | 51% | 1018.6 hPa | 0 mm | - | 501 W/m² | - |
| 1788362817 | 32.78° C | 52% | 1018.4 hPa | 0 mm | - | 469 W/m² | - |
| 1788362512 | 32.78° C | 51% | 1018.6 hPa | 0 mm | - | 445 W/m² | - |
| 1788362207 | 32.22° C | 51% | 1018.5 hPa | 0 mm | - | 421 W/m² | - |
| 1788361902 | 31.67° C | 52% | 1018.6 hPa | 0 mm | - | 396 W/m² | - |
* Rain latest hour (hover to see other rain measurements)
** Current wind speed in m/s (hover to see current wind gust speed)